Location: Bukit Setapoh
(2.2500°N, 113.8000°E)
Time: 05:56:07
(UTC+00:00)

Daily predictions for brighter satellites

Satellite Brightness Start Highest point End
(mag) Time Altitude Azimuth Time Altitude Azimuth Time Altitude Azimuth
ATLAS 3B CENTAUR R/B 3.9 10:53:03 10° N 10:56:08 17° NE 11:00:41 10° E
Spot 2 4.2 10:54:33 10° SSE 10:58:56 66° ENE 11:03:34 10° N
Cosmos 1602 Rocket 3.8 10:55:56 10° SSE 11:00:13 48° E 11:04:26 10° NNE
GPS 2-14 Rocket1 2.5 10:58:24 10° WNW 11:02:10 83° NNE 11:05:54 10° ESE
DMSP B5D2-2 4.0 11:02:20 10° NNE 11:07:32 74° ESE 11:12:44 10° S
Cosmos 1455 2.2 11:07:01 10° N 11:10:46 84° W 11:14:33 10° S
ARIANE 44L R/B 4.2 11:02:30 10° WSW 11:11:00 27° SSW 11:13:51 10° SE
Cosmos 1758 Rocket 4.0 11:09:57 10° SSE 11:13:59 38° E 11:17:57 10° NNE
Cosmos 1898 Rocket 4.1 11:09:26 10° N 11:14:11 37° ENE 11:18:59 10° SE
Centaur Rocket 1.7 11:15:14 10° WNW 11:17:14 87° NNE 11:19:45 15° ESE
ARGOS 3.3 11:16:17 10° SSE 11:21:35 56° ENE 11:26:52 10° N
Cosmos 405 Rocket 3.2 11:19:38 10° SSE 11:23:06 35° E 11:26:36 10° NNE
Maqsat-H 2.5 11:17:36 10° WSW 11:24:13 42° S 11:26:37 18° ESE
Aurora 2 Rocket 4.0 11:18:16 10° WSW 11:24:55 89° NW 11:34:23 10° ENE
H-2A R/B 2.5 11:19:53 10° S 11:25:19 71° WSW 11:30:40 10° NNW
Okean-O 3.6 11:22:22 14° SE 11:25:27 28° ENE 11:29:12 10° NNE
Cosmos 2082 Rocket 3.3 11:23:23 10° SSE 11:27:33 21° ESE 11:31:41 10° ENE
Cosmos 1464 Rocket 4.2 11:24:07 10° NNE 11:30:00 46° E 11:35:50 10° SSE
Cosmos 1833 Rocket 2.7 11:24:48 10° S 11:30:22 62° ESE 11:35:55 10° NNE
SJ-11-01 4.3 11:25:52 10° SSE 11:30:36 89° W 11:35:20 10° NNW
Cosmos 1408 3.3 11:28:55 11° SSE 11:32:07 32° E 11:35:24 10° NNE
Tsikada Rocket 3.9 11:26:49 10° S 11:32:55 67° E 11:39:01 10° NNE
SAR-Lupe-4 4.4 11:30:54 10° NE 11:34:00 28° ESE 11:35:17 22° SE
Cosmos 836 Rocket 4.5 11:29:23 10° SSW 11:34:41 89° WNW 11:39:56 10° NNE
Cosmos 2058 Rocket 3.4 11:32:06 10° N 11:36:27 68° W 11:40:52 10° S
USA 267 3.4 11:31:05 10° NE 11:37:21 50° SE 11:43:38 10° SSW
Tiangong 1.9 11:35:16 10° WNW 11:38:14 44° SW 11:39:46 23° SSE
CZ-2C R/B 1.9 11:39:39 10° WNW 11:43:22 45° SW 11:45:29 24° SSE
CZ-4 R/B 1.6 11:41:07 10° S 11:45:10 73° WSW 11:49:17 10° NNW
deb Centaur AC-2 3.9 11:44:44 10° SW 11:49:03 70° SSE 11:51:32 27° ENE
HJ-1C 3.2 11:47:28 26° S 11:49:12 88° WSW 11:52:26 10° N
Lacrosse 4 Rocket 3.5 11:46:29 10° NW 11:49:51 25° WSW 11:53:17 10° SSW
Ariane V96 H10-3 2.9 11:43:53 10° WSW 11:51:25 55° S 11:52:09 43° SE
Cosmos 1825 Rocket 3.4 11:49:00 10° S 11:53:24 87° E 11:57:45 10° N
Meteor 1-4 Rocket 4.2 11:51:41 10° NNW 11:55:04 35° W 11:58:30 10° SSW
